{"data":{"norad_id":28874,"intl_designator":"2005-038A","name":"GPS BIIRM-1 (PRN 17)","alt_names":[],"object_type":"PAYLOAD","status":"ACTIVE","operator":null,"country":"US","launch_date":"2005-09-26","launch_site_code":"AFETR","launch_vehicle":null,"mission":null,"orbit_class":"UNKNOWN","rcs_meters":3.2653,"size_class":null,"mass_kg":null,"dimensions":null,"purposes":["earth_obs","nav"],"wikipedia_slug":null,"has_3d_model":false,"image_url":null,"decayed_at":null,"tle_current":{"epoch":"2026-05-24T10:23:07.865088Z","epoch_age_seconds":121197,"freshness":"FRESH","line1":"1 28874U 05038A   26144.43272992 -.00000073  00000+0  00000+0 0  9999","line2":"2 28874  54.8982 274.1358 0127727 296.0025  73.3808  2.00567298151361","mean_motion":2.00567298,"eccentricity":0.0127727,"inclination_deg":54.8982,"raan_deg":274.1358,"arg_perigee_deg":296.0025,"mean_anomaly_deg":73.3808,"bstar":0,"rev_number":15136,"period_min":717.96350370139,"perigee_km":19842.641506064,"apogee_km":20521.127884276,"semimajor_km":26560.02169517,"source":"CELESTRAK","updated_at":"2026-05-25T13:38:23.728467Z"}}}